Wind_Speed
43 43 43 42 41 41 41 40 39 39 38 37 36 35 35 33 33 33 33 32 32 33 34 33 32 30 29 28 28 27 25 23 21 20 21 22 22 20 18 17 16 15 15 15 14 15 16 15 14 14 13 11 10 10 10 11 9 7 6 6 6 6 8 8 8 10 13 12 8 6 6 3 1 6 12 8 4 6 8 6 3 0 3 3 3
40 42 44 43 42 41 41 41 41 42 42 40 39 37 37 35 35 34 32 32 32 32 34 35 34 32 31 29 28 27 25 24 23 22 22 22 22 21 20 19 17 15 15 15 15 15 16 15 14 14 13 12 10 11 12 11 9 8 7 7 7 10 10 9 8 9 11 11 9 8 7 5 6 9 11 6 4 7 6 4 2 2 3 4 4
39 42 46 46 45 43 42 43 43 44 43 43 41 39 38 38 37 36 34 34 33 32 34 36 35 33 31 28 27 27 26 25 24 23 21 21 21 21 21 20 18 16 16 16 17 17 16 15 15 15 14 13 12 12 12 11 10 9 8 8 10 11 10 10 10 8 9 10 10 9 9 9 8 8 7 5 6 9 5 3 3 3 3 4 6
42 43 46 47 47 46 45 45 45 44 44 44 43 41 41 41 40 39 37 37 35 34 34 34 34 33 32 28 26 26 26 25 25 24 23 23 23 22 22 22 19 17 16 16 18 19 18 16 16 15 14 14 13 13 12 12 12 9 8 11 13 12 11 11 10 8 9 10 10 9 9 11 10 8 7 6 8 9 6 5 4 3 3 5 6
48 47 48 49 49 49 49 48 47 46 46 46 45 44 44 43 43 41 40 39 38 36 34 33 33 34 33 30 28 28 28 28 29 28 27 27 26 26 25 23 21 18 15 15 17 19 18 17 15 15 14 15 14 13 13 13 12 9 10 15 16 14 13 12 10 10 10 10 10 10 10 10 12 10 9 9 9 9 7 4 4 4 4 5 4
51 51 51 51 52 52 51 50 49 48 48 48 47 47 45 44 44 43 42 41 40 38 35 33 33 34 34 34 33 33 33 33 32 30 29 28 27 26 25 23 21 18 16 15 17 19 18 16 15 15 16 15 14 14 14 13 12 10 11 16 16 14 14 13 11 11 12 11 11 11 11 10 12 14 13 11 10 9 7 5 4 4 4 4 4
50 50 51 52 52 52 52 51 51 50 50 50 49 48 46 45 44 44 44 44 42 40 37 36 35 34 34 35 35 35 35 34 32 29 27 25 24 24 24 22 21 19 17 17 18 19 18 16 15 16 16 15 14 14 14 13 12 11 10 14 15 14 15 14 13 13 13 12 12 12 12 10 10 14 17 14 12 11 10 9 7 6 5 4 5
49 50 51 52 53 54 54 54 53 52 51 51 50 49 48 46 45 45 45 45 44 42 40 39 37 36 35 35 35 35 35 32 29 27 25 23 22 22 22 22 20 19 18 18 19 19 18 17 16 17 16 15 15 14 13 12 12 11 11 12 12 14 15 14 14 15 14 12 12 11 11 10 10 13 16 14 13 13 13 12 10 9 8 7 5
52 53 53 54 55 55 55 55 55 53 52 51 51 50 49 48 47 46 46 46 45 45 43 42 40 37 35 35 36 35 34 31 28 25 24 23 22 22 22 21 20 20 20 20 20 19 19 18 17 18 17 16 16 14 13 13 12 11 11 12 12 14 16 16 14 15 14 13 12 10 10 11 12 12 13 12 12 13 14 14 13 11 11 9 7
53 55 55 56 56 56 56 56 55 54 53 52 52 51 50 49 48 47 46 46 45 45 45 44 42 40 37 36 36 34 32 31 28 26 25 24 24 23 22 21 21 22 22 22 21 21 20 20 19 19 18 17 15 14 14 13 12 10 10 11 12 13 16 18 16 15 15 13 12 11 10 12 13 13 13 12 11 12 12 12 14 14 13 11 8
53 54 55 57 57 56 56 56 55 55 54 53 53 52 52 51 50 49 48 47 46 45 44 44 44 43 41 39 37 34 32 31 30 28 27 26 27 25 23 22 23 24 24 23 23 22 21 21 21 19 18 17 16 15 14 13 11 11 11 11 11 12 14 17 18 17 16 15 14 13 12 13 14 14 14 13 11 13 12 9 10 12 13 12 10
52 53 53 54 54 53 54 54 55 55 55 55 54 53 53 52 51 50 49 48 47 45 44 42 43 44 44 42 39 36 33 32 31 30 28 28 28 27 25 25 26 26 25 24 23 22 22 22 22 21 20 19 17 15 13 12 11 11 11 11 10 11 13 17 20 19 17 15 13 13 14 15 14 14 13 11 10 12 12 9 8 9 11 11 11
51 51 52 53 53 53 53 54 55 55 56 56 55 54 54 53 52 51 50 49 48 46 44 43 42 43 44 44 43 40 36 34 32 31 30 29 29 28 28 29 29 27 26 24 23 23 23 24 23 22 21 20 18 15 13 12 12 12 12 11 11 12 14 17 20 19 17 15 12 13 16 16 14 13 11 9 9 11 12 11 9 9 10 11 12
51 52 52 53 55 55 56 57 57 57 57 57 56 55 54 54 53 52 51 50 48 47 46 44 42 41 42 44 44 42 39 37 35 33 31 30 31 30 29 30 30 28 27 24 23 23 24 25 24 23 22 20 18 16 14 13 12 12 13 13 12 12 14 16 19 19 17 16 14 14 17 16 14 14 12 10 10 11 12 14 13 11 11 12 12
51 52 53 54 57 58 58 58 59 59 59 58 57 56 55 55 54 53 52 50 49 48 47 45 42 41 41 43 44 43 41 39 37 35 33 32 32 31 30 29 29 28 26 24 23 23 25 25 24 23 22 20 18 17 16 15 14 15 15 14 13 13 14 15 16 18 18 17 17 17 17 16 15 15 13 11 11 11 12 14 15 14 12 12 12
51 53 54 55 57 58 59 59 59 60 59 59 58 57 57 56 55 54 52 51 50 49 48 46 43 41 41 42 44 45 43 41 39 38 35 33 33 33 30 29 28 27 26 25 24 25 25 25 25 25 23 22 20 18 17 16 16 17 17 16 15 14 14 14 15 18 18 17 18 19 18 16 15 14 13 12 13 13 12 13 14 14 13 12 12
52 54 55 56 58 59 60 60 59 60 59 60 60 59 59 57 56 54 53 51 51 49 48 47 44 41 41 42 45 45 44 43 41 39 37 35 35 33 32 30 28 27 26 26 26 26 26 26 27 27 25 23 21 19 18 17 18 19 19 18 17 15 14 14 16 18 18 18 18 19 19 16 15 15 14 14 15 15 14 14 13 13 13 13 13
52 55 57 58 59 59 60 60 60 60 60 61 61 60 59 58 56 55 53 52 51 50 49 47 45 42 40 42 44 46 45 43 41 39 37 37 37 35 33 32 30 28 27 27 28 29 28 27 28 29 27 25 23 21 20 19 20 21 21 20 18 16 14 15 18 19 19 19 19 20 20 19 18 17 16 16 16 16 16 15 14 14 14 14 14
49 53 56 57 58 59 60 59 59 60 60 60 60 59 58 57 56 55 53 51 49 48 49 48 45 43 40 41 43 45 45 44 42 40 38 38 39 37 35 34 32 29 28 29 30 30 30 29 30 30 28 26 24 23 22 21 21 22 22 20 19 18 16 17 18 19 19 19 20 21 21 21 21 20 19 18 17 17 16 16 16 16 16 14 12
48 52 53 55 58 59 60 60 60 59 59 58 57 57 56 56 56 55 53 50 49 48 48 48 46 44 41 40 42 44 45 44 42 40 40 40 40 39 37 35 34 32 31 31 31 32 31 30 30 31 29 28 26 25 23 22 22 22 22 21 20 20 19 18 19 19 20 20 20 20 21 19 19 20 19 18 17 16 16 16 17 17 16 13 11
48 51 53 56 58 59 59 59 58 57 56 56 55 56 56 55 55 54 53 52 51 49 48 47 46 44 42 41 41 43 45 45 43 41 41 40 41 40 38 37 35 34 33 33 32 33 33 32 31 31 30 29 27 26 25 24 23 23 23 22 21 21 20 20 20 19 19 19 19 20 20 19 19 19 18 17 16 15 15 16 16 16 15 13 12
50 51 54 56 57 57 58 57 55 55 55 55 55 55 55 55 55 54 53 53 52 51 49 47 45 45 44 42 40 41 44 45 44 42 41 41 41 42 40 39 38 37 35 34 34 34 34 33 32 32 31 30 29 28 27 26 25 24 24 23 23 22 21 21 21 19 18 18 19 20 21 21 20 19 18 17 16 14 14 16 16 16 15 14 14
52 53 54 56 57 58 57 56 55 54 54 54 54 54 55 55 55 55 54 54 53 52 49 47 46 45 44 42 41 41 43 45 45 43 42 41 42 43 42 41 40 39 37 36 36 35 35 34 34 33 33 32 31 30 29 27 26 25 25 24 23 22 21 20 20 19 18 19 19 20 21 21 21 20 19 18 16 14 14 15 17 16 15 15 16
54 53 53 54 55 55 54 54 54 54 54 54 54 54 55 55 55 55 55 55 53 52 50 49 47 46 45 44 42 41 42 45 46 45 44 42 43 43 44 43 41 40 39 38 37 37 36 35 35 35 35 34 33 32 31 29 26 25 24 24 23 21 20 19 19 19 18 19 19 20 21 21 21 21 20 19 18 16 16 16 16 16 15 16 18
53 51 49 50 50 50 52 53 54 55 54 53 54 54 54 55 55 56 55 54 53 52 52 51 49 48 47 46 44 42 42 44 46 46 46 44 44 45 45 44 44 42 41 40 39 38 38 37 37 37 36 36 35 34 32 30 27 26 24 23 23 21 19 19 19 19 19 19 19 19 20 21 21 22 21 21 21 20 19 18 17 15 15 16 18
50 49 49 48 48 49 51 54 54 55 55 54 53 53 54 54 55 55 54 53 53 52 52 52 51 50 49 48 46 44 43 44 45 46 47 46 45 46 47 47 46 45 43 42 41 40 40 39 39 38 37 37 36 35 33 30 28 27 24 23 23 21 19 19 19 19 19 19 19 20 20 21 22 23 23 24 25 25 23 22 19 16 15 16 18
49 49 48 47 46 48 51 53 54 54 55 54 53 53 54 54 54 53 52 52 52 52 52 53 52 52 51 50 47 45 43 43 44 46 47 48 47 47 48 48 48 47 46 44 42 42 41 40 39 38 38 38 37 36 34 32 30 28 26 25 23 20 18 19 20 20 21 20 20 20 21 22 23 24 25 26 26 26 25 23 20 18 17 18 19
49 48 47 46 46 48 50 52 53 53 54 54 53 53 54 53 53 52 51 51 52 52 53 53 53 53 53 51 49 45 43 43 44 46 48 49 49 49 49 49 49 49 48 46 44 43 42 41 40 38 38 38 38 38 36 34 32 30 28 26 24 20 19 20 21 21 21 21 21 21 21 22 24 25 26 25 24 23 23 23 21 19 20 21 20
44 45 46 47 47 49 50 52 53 53 53 53 52 52 52 52 52 52 52 52 52 53 54 54 54 54 54 52 50 47 44 44 44 46 48 50 51 50 50 50 50 49 48 47 45 44 43 42 41 40 40 40 40 40 39 37 34 32 30 28 26 22 19 20 21 21 22 22 22 22 22 22 24 25 25 24 22 21 22 22 21 20 21 21 21
42 44 47 48 49 51 52 52 52 52 52 52 52 52 52 52 52 52 53 53 53 54 54 55 56 56 54 53 51 49 47 45 46 47 48 50 51 51 50 50 49 49 48 47 46 45 44 43 42 42 42 42 42 42 40 38 35 33 31 30 29 24 19 20 22 22 22 23 22 22 22 23 24 24 24 24 23 23 23 22 22 22 22 22 23
38 40 43 47 49 50 49 50 51 51 51 51 52 52 52 52 52 52 53 54 54 55 55 56 57 56 55 53 52 50 49 48 47 48 49 50 51 50 50 49 48 48 47 47 47 46 45 45 44 43 43 43 43 42 41 39 36 35 33 31 31 27 20 18 21 22 23 24 23 23 23 24 24 25 25 25 24 23 23 23 23 24 24 24 24
34 35 37 41 44 44 45 48 50 50 50 50 50 50 51 52 52 52 53 54 55 56 56 57 57 56 55 53 52 51 50 49 48 48 49 49 49 49 48 47 47 47 47 47 47 47 46 45 44 44 44 44 44 42 41 40 38 37 36 33 32 30 24 19 20 22 22 23 23 24 25 25 25 25 24 24 22 22 22 23 24 24 23 23 21
29 34 37 41 42 42 43 45 47 49 48 47 47 48 48 50 51 53 53 54 55 56 57 58 58 56 54 52 51 51 50 49 49 48 48 48 47 47 47 46 46 47 47 47 47 47 46 45 45 44 44 43 43 42 41 40 39 38 37 35 34 33 26 19 19 21 23 23 24 25 26 26 25 24 23 22 22 22 23 24 24 23 22 21 19
29 33 39 43 43 43 44 45 46 48 46 44 44 45 46 47 50 53 53 55 56 56 57 58 57 56 54 52 50 50 49 49 48 47 47 47 47 46 45 45 46 47 47 47 47 46 46 45 45 44 43 43 42 42 41 40 39 38 38 37 34 32 26 20 18 20 23 25 25 26 27 26 25 24 22 22 22 23 24 25 24 24 22 21 20
34 34 37 41 42 43 44 46 47 46 44 44 45 45 47 49 51 52 53 55 57 57 57 57 56 56 54 52 50 50 49 48 47 46 46 46 46 45 45 45 47 48 48 47 47 46 45 45 44 43 42 41 41 41 40 39 38 38 39 38 35 33 31 29 26 24 25 27 27 27 27 26 25 24 23 22 23 23 24 24 24 23 22 21 21
33 34 34 35 38 42 44 45 46 45 44 45 46 46 48 50 51 52 54 55 56 57 57 57 56 55 54 53 51 49 49 48 46 46 45 45 46 46 46 46 47 48 48 47 47 46 45 44 43 41 41 40 40 40 39 38 37 37 38 38 37 35 34 34 33 29 27 29 29 28 27 26 25 24 23 22 22 22 22 22 23 22 22 22 22
31 34 33 30 33 40 42 40 42 46 46 45 46 47 49 51 52 53 54 55 56 57 57 56 56 55 55 54 52 50 49 48 47 46 46 46 46 46 46 47 48 49 49 48 47 46 44 44 42 41 40 39 39 39 37 36 35 35 37 38 37 36 34 31 28 25 27 29 29 27 26 26 24 23 22 20 20 20 20 21 21 21 21 21 21
23 32 34 32 35 41 43 42 45 49 49 47 48 50 51 52 54 54 54 55 56 56 56 56 56 55 55 54 53 51 50 49 48 48 47 47 47 46 47 48 49 50 50 49 47 46 44 44 42 41 40 39 39 38 35 33 32 33 35 35 34 34 32 27 23 24 27 29 27 26 25 25 23 21 19 18 17 18 19 20 20 20 20 21 21
10 23 31 35 39 44 47 48 49 50 49 48 50 52 52 53 54 54 54 55 56 57 56 55 55 55 54 54 54 53 52 51 50 49 49 48 47 46 47 48 49 50 50 48 47 45 45 44 42 41 40 38 38 35 31 30 29 30 30 30 30 29 28 25 23 25 27 27 26 26 25 24 22 20 18 17 17 18 19 19 19 19 20 21 20
5 9 18 26 34 40 45 48 48 48 49 50 50 50 51 52 53 53 55 56 56 56 54 53 54 55 55 55 54 54 53 53 52 51 50 49 47 46 47 48 49 49 49 48 47 46 45 44 42 41 39 37 35 32 27 25 25 25 24 25 26 26 25 24 24 25 26 26 25 25 24 22 21 19 18 17 16 17 18 18 19 19 19 18 17
7 3 5 11 20 30 39 43 43 43 45 47 48 50 52 55 56 55 56 56 55 54 52 51 53 55 56 56 55 55 55 54 54 53 51 49 48 48 48 48 48 49 48 47 47 46 44 43 42 40 38 35 32 27 22 21 20 20 20 22 23 23 23 23 24 24 25 26 25 24 22 20 19 17 16 15 14 14 15 16 17 17 16 15 15
5 6 3 1 8 20 32 38 39 39 39 40 42 46 49 52 54 55 54 53 53 54 53 53 55 56 56 56 56 56 55 55 55 53 51 50 49 49 50 50 50 49 48 47 46 45 43 41 40 38 36 33 28 21 18 17 17 17 19 21 21 21 21 22 22 22 24 24 24 22 20 18 16 15 13 12 12 13 13 14 14 13 13 14 15
4 6 6 5 1 10 23 32 35 37 37 36 36 38 42 44 46 48 49 48 48 50 51 52 54 55 55 56 56 55 55 55 55 54 52 51 51 51 51 50 49 48 46 45 44 43 41 40 38 36 32 27 22 18 16 15 15 16 18 20 20 20 19 20 19 20 20 20 20 19 17 16 14 13 11 11 12 13 13 13 12 12 12 14 15
7 7 5 4 4 1 9 17 23 27 30 31 29 30 33 37 39 41 43 43 44 46 47 48 49 50 51 51 50 49 50 51 51 51 49 49 49 49 47 46 46 45 41 38 38 39 38 39 37 34 29 23 19 17 16 14 14 16 18 20 21 20 19 19 18 18 17 17 17 17 15 14 13 12 11 12 12 12 12 12 12 12 13 14 13
8 9 7 6 4 3 4 7 11 15 19 23 24 25 24 23 24 29 33 36 39 41 43 45 46 48 49 48 46 45 46 47 47 47 47 47 48 47 46 45 44 40 36 36 38 39 38 38 35 31 27 23 20 17 16 15 16 18 19 21 21 21 20 20 18 17 17 17 17 16 15 14 13 12 12 12 12 11 12 12 12 13 13 12 11
5 8 9 9 9 8 8 8 8 10 11 14 18 22 21 18 16 16 19 24 30 34 37 39 42 44 47 48 46 44 44 46 47 46 46 48 50 48 46 42 36 32 33 36 38 38 37 35 33 30 27 23 21 18 16 16 18 20 22 23 23 23 22 21 19 18 18 18 17 16 15 14 13 11 11 11 11 12 12 12 12 13 13 11 10
6 5 6 8 9 10 10 10 11 12 13 13 15 18 20 22 22 20 22 27 31 34 35 37 39 43 47 49 50 49 47 46 47 48 49 49 48 45 40 35 32 32 33 33 34 36 37 34 31 28 25 22 20 19 17 17 19 21 23 25 26 25 23 21 20 19 18 18 17 16 15 14 12 11 11 12 12 13 12 12 12 12 12 11 10
8 7 5 5 6 7 9 9 9 11 13 15 18 19 21 24 26 26 29 33 33 31 30 33 37 43 48 51 51 51 51 50 49 50 51 49 45 40 35 33 34 35 32 32 36 38 36 32 29 27 23 22 21 19 18 19 20 20 22 25 26 25 24 22 21 20 18 17 16 16 16 15 14 13 13 13 13 13 12 11 11 11 11 11 12
8 6 5 3 3 5 6 7 7 8 10 12 15 17 20 22 24 25 27 29 29 29 30 33 35 38 43 50 55 54 53 53 53 50 48 45 41 37 35 34 35 34 32 33 36 37 33 29 27 24 22 24 24 21 19 18 17 17 19 21 22 22 22 21 20 18 17 17 17 17 17 16 14 13 13 13 13 13 12 11 10 10 11 12 13
9 7 5 2 0 1 2 3 3 4 6 9 12 14 17 21 24 26 28 29 29 31 33 35 38 38 35 40 51 59 57 55 54 51 47 43 38 35 35 35 34 31 27 28 30 29 27 25 23 22 22 23 21 19 18 17 16 15 15 16 17 17 18 19 18 17 17 16 17 17 17 16 14 14 14 13 13 12 12 11 10 9 10 12 14
8 6 5 4 3 4 5 4 4 3 4 7 11 15 18 21 23 25 28 29 30 33 35 37 40 38 26 18 28 44 45 41 41 41 40 41 39 35 32 31 29 27 25 25 25 23 21 20 20 22 23 20 16 16 18 17 15 14 14 15 16 16 17 17 17 17 17 17 17 17 17 16 14 14 14 13 12 12 11 10 9 10 11 13 14
Wind_Direction
201 201 202 203 203 202 202 202 203 204 207 208 208 209 210 210 210 210 209 207 206 203 202 202 201 203 207 209 209 207 207 208 212 217 217 217 219 222 221 218 221 223 222 222 219 216 219 222 226 231 232 231 235 245 255 261 260 241 229 245 240 194 162 154 157 170 182 191 199 220 230 220 195 160 152 154 169 164 178 188 167 228 339 354 7
197 199 201 201 201 201 202 203 203 204 206 208 211 211 210 210 212 211 208 207 208 206 205 205 205 207 209 210 208 206 206 208 213 218 217 217 220 222 222 224 227 225 221 221 221 220 222 225 228 230 230 230 234 243 253 257 240 222 226 229 197 173 161 160 165 166 176 186 192 206 211 174 146 154 153 153 175 172 178 185 187 292 330 1 5
194 197 199 200 201 201 202 204 206 207 207 209 212 214 211 210 212 213 211 209 209 209 208 208 209 211 213 214 210 207 209 212 217 222 220 220 223 223 225 227 230 228 225 225 227 227 227 227 228 230 231 231 237 245 250 240 221 217 219 199 180 174 169 166 164 166 181 185 177 182 192 180 165 165 172 187 188 184 192 220 246 288 339 358 355
193 196 198 200 201 202 203 206 208 208 208 209 211 213 213 212 213 213 212 211 210 209 210 211 212 214 216 218 215 212 214 216 219 223 224 224 227 228 229 231 233 231 228 229 228 228 228 225 226 230 232 234 240 243 236 223 216 222 210 184 177 179 177 171 173 184 192 186 176 178 183 187 187 177 176 188 185 187 209 243 255 274 328 349 359
194 196 198 200 202 203 205 207 208 208 210 211 211 212 213 214 214 214 214 213 211 210 211 211 211 213 215 217 217 214 215 216 218 222 224 225 228 231 231 232 235 231 229 230 226 225 226 223 226 229 230 234 237 232 221 215 217 220 204 186 183 184 182 181 187 196 199 194 191 185 180 189 196 184 167 169 178 188 209 231 244 268 313 341 9
195 197 199 201 203 205 207 208 208 209 212 215 215 214 214 215 214 214 215 215 214 212 212 212 211 211 212 214 214 213 214 217 220 222 223 224 225 226 227 230 232 231 231 232 226 225 225 224 225 225 227 229 227 220 214 216 218 213 199 193 192 190 186 190 194 195 196 198 203 200 195 201 199 187 175 169 179 196 212 220 236 263 291 310 328
197 197 198 200 202 204 206 207 208 210 213 216 217 216 216 216 214 214 216 218 217 214 213 214 214 212 213 214 215 217 218 220 222 223 223 222 221 220 222 226 229 228 230 230 227 226 225 225 223 221 223 222 217 217 218 221 220 210 197 195 198 197 195 197 195 195 197 196 204 207 207 217 211 193 188 183 183 194 210 220 227 245 254 259 278
197 198 198 199 201 203 205 208 210 212 214 215 215 216 216 217 217 216 216 218 219 218 216 217 216 214 214 216 218 220 222 224 224 223 220 219 220 218 218 221 223 225 226 228 227 225 225 224 221 219 219 216 216 219 222 223 218 210 204 201 203 203 203 203 197 198 200 195 197 199 199 209 211 201 198 198 198 195 201 213 218 231 238 235 254
198 199 199 200 202 204 206 208 210 213 214 214 215 217 218 219 220 218 217 217 219 220 220 219 219 217 215 216 218 220 223 226 225 223 219 216 218 218 216 217 221 225 228 229 228 226 225 225 221 218 216 215 216 217 219 220 216 214 213 209 209 210 208 207 205 202 202 200 196 188 185 193 196 199 200 203 211 206 204 214 218 223 226 226 245
200 201 201 202 204 206 207 208 210 212 213 215 216 217 219 219 219 219 219 219 219 220 221 221 222 220 217 216 218 220 221 223 223 222 219 216 217 218 215 216 221 226 229 229 229 227 225 224 221 218 216 215 215 215 217 217 214 215 213 208 213 215 211 210 212 210 208 208 203 189 186 195 193 195 199 200 209 213 211 218 224 225 221 220 235
200 202 202 203 205 206 207 208 209 211 212 214 215 217 218 219 219 220 221 221 220 220 221 222 223 223 220 218 219 220 220 220 219 218 218 216 216 217 216 218 223 227 227 226 227 226 223 222 220 218 216 214 216 218 218 215 211 211 211 214 224 225 218 215 215 216 214 212 212 206 199 204 202 197 199 200 207 217 216 211 216 221 219 221 233
200 202 203 203 204 205 206 207 209 210 211 212 214 216 217 218 219 219 220 221 220 220 221 222 224 225 223 221 221 221 220 220 219 217 216 215 215 216 216 220 224 224 223 222 223 222 219 218 217 217 214 214 218 220 216 213 211 212 213 220 226 224 220 217 215 217 216 208 209 210 202 204 209 203 200 205 216 222 220 209 199 205 212 217 227
199 201 202 202 203 203 205 207 209 209 210 212 213 214 215 217 218 219 219 220 220 221 221 222 224 226 226 224 223 222 221 222 222 220 217 216 216 216 216 220 222 220 218 219 221 219 216 216 216 214 213 214 217 216 214 215 215 215 217 219 219 217 217 217 215 216 213 202 198 199 198 202 208 205 203 215 229 229 226 223 215 213 214 211 214
199 200 201 202 203 204 205 207 208 209 210 211 212 213 214 215 217 218 219 220 220 221 222 222 224 226 227 227 225 223 222 222 224 222 219 217 218 218 218 220 222 220 218 219 220 219 216 216 216 214 214 215 215 214 215 218 220 222 222 221 219 216 215 216 215 215 211 203 199 199 200 202 204 205 209 218 228 230 230 233 232 229 225 218 216
200 201 202 203 204 205 206 208 209 209 210 211 211 212 213 214 215 217 218 219 220 221 222 223 224 225 227 229 228 225 223 223 224 224 222 219 220 221 222 223 224 223 222 222 221 220 217 216 216 215 215 216 216 216 218 220 222 227 226 221 219 216 212 212 212 213 211 206 203 203 202 203 205 209 217 221 223 225 227 233 236 235 234 233 234
199 201 203 205 206 207 207 208 209 210 210 210 211 211 212 213 214 216 217 219 219 220 222 223 224 226 227 229 228 226 224 223 223 223 223 221 222 224 225 226 226 225 225 223 221 220 219 216 215 215 217 218 218 218 221 223 226 231 228 220 218 219 213 210 211 212 210 206 203 202 203 209 214 217 225 229 226 226 228 231 235 239 243 247 251
200 201 204 206 207 207 208 209 209 210 210 210 212 212 212 212 213 214 215 217 219 220 221 223 224 226 227 228 228 226 224 223 223 223 222 222 224 227 229 229 226 224 224 224 222 221 222 219 216 216 217 218 219 220 223 227 232 235 233 224 220 222 217 212 213 211 209 208 206 205 208 215 220 221 225 232 234 234 236 238 241 246 253 258 262
200 202 205 206 207 208 209 209 210 211 211 212 212 213 212 212 213 214 214 216 218 219 221 222 223 225 227 226 226 226 225 224 223 223 222 222 224 226 229 229 226 224 224 224 223 222 224 221 218 217 217 217 218 219 222 229 233 234 233 230 225 224 221 216 212 209 210 213 213 213 214 216 220 223 226 232 238 239 241 245 247 251 258 262 262
201 202 204 205 207 208 209 210 211 212 213 213 213 212 211 212 213 214 216 217 219 220 220 222 223 224 226 226 225 226 226 225 224 223 223 223 224 226 228 228 226 225 225 225 223 223 224 221 217 217 217 216 216 218 222 227 230 229 230 229 225 224 223 218 211 208 211 217 218 219 219 219 222 227 229 233 238 241 244 246 249 253 257 257 255
201 202 204 205 207 209 210 211 212 212 213 212 211 210 210 211 212 214 216 217 219 220 220 221 222 224 225 226 226 226 226 226 224 224 224 225 225 227 228 228 226 225 225 226 224 223 224 222 218 217 217 215 215 216 221 226 226 226 227 226 223 222 222 219 213 209 212 219 223 224 224 224 227 229 231 235 240 246 248 246 247 250 250 249 247
202 203 205 206 207 209 211 213 212 211 211 211 210 210 211 211 211 213 214 215 216 218 219 221 222 223 224 225 226 226 226 226 225 225 225 226 226 227 228 228 227 227 226 226 226 224 225 224 220 219 218 216 215 215 219 224 226 225 225 224 221 220 220 219 216 214 215 221 227 229 230 230 233 235 235 238 244 248 246 239 240 244 247 251 247
203 205 206 207 207 208 210 211 210 209 210 210 209 210 210 210 211 212 214 215 215 216 218 220 222 223 224 225 226 226 226 226 226 225 226 226 226 227 228 228 228 228 228 227 227 226 226 225 223 221 221 219 218 218 219 223 226 225 223 222 219 219 220 219 217 217 219 223 226 230 233 232 233 234 234 237 240 243 242 237 238 243 249 252 245
205 206 207 208 208 208 209 209 208 208 209 209 209 209 210 211 212 212 213 215 216 216 218 220 222 224 224 224 226 226 227 226 226 226 226 226 226 226 227 228 228 229 229 229 229 229 228 226 224 224 224 222 221 220 221 224 227 226 223 220 218 220 223 222 220 219 222 226 227 228 230 227 226 229 231 234 237 240 244 243 241 244 248 246 239
207 207 207 208 207 206 206 206 206 207 208 208 208 209 210 211 212 213 214 215 214 215 217 218 221 223 224 224 225 226 226 226 226 227 227 227 226 226 227 228 228 228 229 229 230 230 230 228 227 226 226 225 224 223 224 226 227 228 226 222 220 223 227 228 224 221 223 228 229 229 228 226 227 233 236 237 239 241 245 245 241 240 243 241 237
209 208 207 206 205 204 203 204 206 206 206 207 208 209 209 211 212 213 214 214 214 214 216 217 220 221 222 223 224 225 226 227 228 228 228 228 228 227 227 228 228 229 229 229 230 230 230 229 229 229 228 228 227 226 227 228 228 228 227 224 223 227 233 235 230 224 224 228 230 231 230 228 233 239 242 243 243 244 246 246 239 236 242 245 242
209 208 207 205 203 202 203 205 206 206 206 207 208 209 209 211 213 213 213 213 213 215 215 217 219 219 221 222 224 225 227 228 229 229 229 229 229 228 228 228 228 229 230 230 230 230 230 230 230 230 230 230 229 229 231 232 230 229 228 226 225 227 235 238 232 227 226 229 231 234 234 233 236 241 244 247 247 246 247 244 237 236 243 248 247
210 208 207 205 203 202 203 205 206 205 205 206 208 209 210 211 212 213 213 213 213 214 215 216 218 219 220 222 223 226 228 230 231 231 230 229 229 229 229 229 229 230 231 231 231 231 231 231 231 232 232 232 232 232 233 234 232 230 230 230 227 230 238 238 233 229 229 231 232 234 237 238 240 244 248 249 248 247 245 240 235 237 243 245 246
208 208 207 204 203 203 203 205 206 206 205 206 208 210 211 211 211 211 212 213 214 214 216 217 218 219 220 222 224 227 229 231 233 233 231 230 230 230 229 229 229 229 231 232 233 233 232 232 232 234 235 235 235 235 235 234 232 230 231 231 229 234 241 240 234 231 231 232 233 234 237 240 241 245 247 247 245 242 240 237 235 240 245 247 249
209 208 206 204 203 203 204 205 206 206 206 206 207 210 211 211 212 211 212 214 215 215 216 217 218 220 222 224 225 226 229 231 232 233 232 231 230 230 230 229 228 229 231 232 233 234 233 233 233 234 236 236 236 236 236 235 233 231 232 231 229 234 242 241 236 234 233 234 235 237 239 240 240 242 244 245 245 242 239 239 239 243 248 251 256
211 210 207 205 205 206 206 205 204 205 206 206 207 209 211 211 211 211 212 214 215 215 217 218 219 222 224 224 224 226 228 229 231 232 233 231 230 229 229 229 229 229 230 231 233 234 234 234 235 236 236 236 236 237 237 237 237 236 234 232 229 231 240 242 236 235 235 235 236 239 241 242 240 241 244 247 249 248 245 245 246 249 252 256 260
209 210 208 205 205 206 206 203 204 207 207 208 210 212 212 212 212 212 213 214 214 216 217 219 221 224 224 224 225 226 227 228 230 232 233 231 229 228 228 228 229 229 230 231 232 234 235 236 238 238 238 238 239 239 239 239 239 238 237 235 232 231 238 241 235 233 236 236 237 240 242 243 241 241 243 246 248 248 249 250 252 254 255 257 261
205 207 204 204 205 205 203 203 206 209 209 210 212 212 212 212 212 214 215 214 214 216 217 220 223 224 224 224 226 226 226 228 229 231 231 230 228 227 227 228 229 229 230 232 233 235 236 238 239 239 240 241 242 242 243 241 240 240 237 236 234 232 236 240 233 232 237 237 238 241 242 243 243 242 243 245 246 246 248 251 253 253 256 259 264
200 202 202 203 205 205 204 205 209 211 212 214 215 214 215 217 217 217 215 213 214 216 218 220 222 222 223 226 227 227 227 228 229 230 230 228 227 227 227 228 229 230 232 233 233 235 237 239 240 241 243 244 244 245 245 244 244 242 237 236 235 231 234 242 241 238 240 240 240 241 243 244 244 243 244 246 248 249 250 253 254 255 258 263 269
197 201 204 205 206 206 207 210 214 216 216 218 218 220 222 223 221 217 213 212 214 216 218 220 221 222 223 226 227 227 228 228 228 227 226 226 226 226 227 228 230 231 232 233 233 235 237 240 241 243 245 246 247 249 248 247 246 242 238 238 234 227 232 250 256 249 244 242 242 241 242 245 245 244 246 248 250 252 254 256 257 257 261 266 270
196 199 205 207 207 207 209 211 215 217 218 218 218 221 223 221 218 215 212 213 215 216 218 219 221 222 223 225 227 228 228 228 226 225 225 225 225 225 226 228 230 232 233 234 235 237 239 241 243 245 246 248 250 251 251 250 247 242 239 238 230 226 236 251 262 260 244 237 241 243 243 246 247 246 248 251 252 254 255 255 255 257 262 265 269
200 199 202 206 210 213 213 215 218 218 219 219 219 220 221 220 217 215 214 214 215 216 218 219 220 222 223 224 226 228 228 226 224 224 224 224 224 224 226 229 231 232 233 235 237 238 240 242 244 245 246 248 249 251 251 250 247 242 239 234 227 231 244 255 265 262 241 230 237 243 244 247 247 247 250 253 254 254 254 254 256 259 262 265 269
215 209 204 204 214 218 215 218 224 225 222 221 221 221 220 219 217 215 215 216 216 217 219 220 221 223 224 224 225 227 227 225 223 224 224 223 223 224 227 229 231 232 233 234 237 239 241 242 243 245 246 247 248 250 250 249 247 243 239 232 229 237 247 255 257 246 228 226 235 241 243 246 247 248 251 252 252 252 254 256 258 259 262 267 273
225 221 215 211 213 214 211 213 221 224 223 222 223 221 219 217 215 214 215 216 216 218 220 221 223 225 225 224 224 226 226 225 224 224 223 222 223 225 228 230 230 232 233 235 237 238 240 241 243 245 247 247 248 250 250 249 249 245 240 236 236 240 246 249 241 224 221 228 235 237 241 244 245 247 248 249 251 253 254 256 256 259 265 271 277
207 222 225 222 217 214 212 213 216 220 221 223 223 219 216 216 215 215 215 215 217 219 221 224 226 228 227 226 224 224 225 225 225 225 224 222 224 227 229 229 230 232 233 235 236 237 238 240 243 244 245 245 246 249 251 252 251 247 243 242 241 242 245 245 233 222 223 230 235 237 240 242 242 244 246 250 254 253 250 250 254 260 268 275 279
108 199 221 227 226 223 221 219 219 221 224 226 224 220 217 218 218 217 216 216 219 222 224 227 230 229 228 227 225 223 224 225 226 225 223 223 225 227 227 228 229 230 232 234 235 236 238 240 241 242 241 241 243 247 250 251 248 244 244 245 242 240 240 239 230 225 226 230 233 235 237 239 243 246 250 254 253 247 244 248 255 263 271 275 277
56 81 202 220 227 231 232 230 227 226 227 227 225 222 221 222 221 219 218 221 223 224 226 228 229 228 227 227 226 224 224 226 227 225 221 221 223 226 227 228 228 228 230 231 232 235 236 238 240 240 238 238 242 245 243 240 238 238 238 239 238 236 235 233 230 228 228 230 232 234 237 242 246 248 250 251 246 241 244 250 257 263 266 269 274
38 25 5 231 214 225 231 232 230 229 228 226 224 222 220 220 220 219 222 224 224 223 224 225 226 225 226 227 226 225 224 224 224 223 219 217 220 225 228 229 228 227 228 228 229 231 232 234 236 236 235 238 240 237 228 226 228 229 228 230 232 232 230 229 228 228 229 231 234 237 240 243 244 243 241 240 239 241 248 252 254 256 260 269 281
333 359 12 22 19 221 225 228 230 229 229 228 227 223 220 219 219 220 223 223 221 221 223 223 223 223 224 227 227 226 224 222 221 220 216 214 219 223 224 225 224 222 221 222 224 225 227 229 231 231 232 233 228 218 213 215 217 219 222 224 225 224 223 223 223 224 226 228 230 233 234 233 232 231 231 234 238 243 248 248 247 251 265 279 289
309 318 343 12 13 265 220 224 228 231 232 231 227 222 220 221 221 223 225 224 222 220 221 222 222 222 224 226 226 224 222 219 218 217 213 210 213 216 215 215 214 211 212 218 224 226 226 227 227 227 226 218 207 203 204 202 204 210 214 215 215 214 213 214 217 218 219 220 221 221 221 221 221 223 228 235 240 242 243 243 245 257 274 284 289
295 295 294 296 299 283 243 227 227 232 235 234 231 225 223 226 227 228 229 227 224 221 220 221 222 222 223 225 225 223 220 217 214 212 207 204 206 209 209 207 206 208 217 227 230 227 225 224 224 221 213 202 196 197 195 190 194 203 206 206 206 206 207 210 215 216 215 214 214 212 213 216 218 224 232 239 242 240 238 240 249 265 278 282 284
292 282 281 280 275 264 256 248 239 236 235 234 234 233 234 238 240 239 238 237 233 228 223 221 221 222 223 224 224 220 215 212 210 206 201 201 204 205 202 200 203 214 223 227 228 225 222 221 218 211 203 198 196 195 192 190 194 198 201 202 202 204 207 211 214 214 211 209 208 210 214 218 222 229 237 240 239 237 237 244 258 271 275 274 276
352 332 301 281 273 267 262 256 250 246 243 241 244 249 251 251 251 252 254 250 242 234 230 226 224 224 224 224 224 221 213 207 203 198 194 196 199 199 198 201 212 220 222 226 231 226 220 216 209 201 198 199 198 194 193 197 198 196 197 200 201 202 205 209 210 209 207 207 210 215 219 222 226 231 234 234 235 237 243 255 266 269 265 262 269
15 5 348 312 287 277 274 273 265 255 249 247 249 253 255 255 252 246 239 234 230 228 226 222 221 222 223 222 220 216 208 199 194 192 190 189 193 198 204 213 221 223 225 230 229 222 215 210 201 194 195 198 198 196 199 204 205 200 196 196 198 200 202 204 204 203 205 210 216 222 225 226 229 234 235 236 238 243 252 261 262 257 253 255 264
51 38 17 342 305 281 279 284 283 276 268 260 254 249 247 247 245 236 227 224 224 223 218 213 209 208 212 215 213 209 202 194 187 186 186 187 193 202 209 215 220 224 228 228 221 214 211 206 200 200 205 205 201 200 204 207 207 202 197 194 194 195 197 200 202 205 209 216 221 226 229 232 235 238 240 239 241 247 255 258 253 248 252 259 266
66 65 56 34 23 220 235 231 232 251 261 259 254 246 241 239 237 234 231 229 226 219 214 212 205 196 199 208 200 190 186 184 181 181 184 187 193 202 209 213 215 213 214 215 213 210 208 206 207 212 217 219 216 205 195 190 190 190 191 193 192 191 194 199 204 209 215 222 228 231 233 235 238 240 240 240 242 249 253 252 250 254 262 266 268
61 71 70 63 96 133 145 142 149 179 221 237 233 225 222 223 225 228 228 227 224 214 203 199 197 194 201 205 172 161 165 174 177 179 184 186 187 190 197 202 199 190 188 196 203 209 213 215 218 217 214 218 218 197 181 176 176 176 180 185 188 191 196 202 209 215 219 223 227 230 232 234 236 237 237 238 242 249 253 255 260 265 267 267 264
Height
1510 1515 1518 1520 1523 1525 1527 1528 1530 1532 1533 1534 1536 1537 1539 1540 1541 1543 1545 1547 1549 1550 1552 1554 1555 1557 1559 1560 1561 1562 1564 1565 1565 1566 1566 1566 1567 1568 1569 1570 1571 1572 1573 1573 1574 1574 1574 1575 1576 1576 1577 1577 1577 1577 1577 1577 1577 1577 1577 1577 1576 1576 1576 1576 1576 1577 1577 1578 1579 1580 1580 1580 1579 1579 1579 1579 1579 1579 1579 1579 1579 1580 1580 1580 1581
1509 1512 1515 1518 1520 1522 1524 1526 1527 1528 1529 1530 1532 1534 1536 1538 1539 1541 1543 1545 1546 1548 1549 1551 1553 1554 1556 1557 1559 1560 1561 1562 1563 1563 1564 1564 1566 1567 1567 1569 1570 1571 1571 1572 1573 1573 1573 1574 1574 1575 1575 1575 1576 1576 1576 1576 1576 1576 1576 1576 1575 1575 1576 1576 1576 1576 1577 1577 1578 1579 1579 1580 1579 1579 1580 1580 1579 1579 1579 1579 1579 1579 1580 1580 1580
1505 1508 1511 1514 1516 1519 1521 1522 1523 1524 1526 1528 1530 1532 1534 1535 1536 1538 1540 1541 1543 1545 1547 1548 1550 1552 1554 1556 1557 1559 1559 1560 1561 1562 1562 1563 1564 1565 1566 1567 1568 1569 1570 1571 1571 1572 1572 1573 1573 1574 1574 1574 1574 1574 1574 1575 1575 1575 1575 1575 1575 1575 1575 1575 1576 1576 1577 1577 1577 1577 1578 1579 1579 1579 1580 1580 1580 1580 1580 1580 1579 1580 1580 1580 1580
1500 1503 1506 1510 1513 1515 1517 1518 1519 1521 1524 1526 1527 1529 1530 1531 1532 1534 1536 1538 1540 1543 1545 1547 1549 1551 1553 1555 1557 1558 1558 1559 1560 1560 1560 1561 1562 1563 1564 1566 1567 1568 1569 1569 1570 1570 1570 1571 1571 1572 1572 1573 1573 1573 1573 1574 1574 1574 1574 1574 1575 1575 1575 1575 1575 1576 1576 1577 1577 1577 1577 1578 1578 1579 1579 1579 1580 1580 1580 1580 1580 1580 1580 1580 1579
1493 1497 1500 1504 1507 1509 1511 1513 1516 1518 1520 1521 1523 1524 1525 1527 1529 1531 1533 1535 1537 1540 1543 1545 1548 1549 1551 1554 1555 1556 1557 1557 1557 1557 1558 1559 1560 1561 1562 1564 1565 1566 1567 1568 1568 1568 1568 1569 1570 1570 1571 1571 1572 1572 1573 1573 1573 1573 1573 1573 1574 1574 1574 1575 1574 1575 1575 1576 1576 1576 1576 1577 1577 1578 1578 1579 1579 1580 1580 1580 1580 1580 1580 1579 1579
1487 1489 1493 1497 1500 1504 1506 1509 1512 1513 1515 1516 1518 1520 1522 1525 1527 1529 1531 1533 1535 1537 1540 1542 1544 1546 1548 1549 1551 1551 1552 1552 1552 1553 1554 1556 1557 1559 1561 1562 1563 1565 1565 1566 1566 1566 1567 1567 1568 1569 1569 1570 1570 1571 1572 1572 1572 1572 1572 1572 1573 1573 1574 1574 1574 1574 1574 1575 1575 1575 1575 1575 1576 1577 1577 1578 1579 1579 1580 1580 1579 1579 1579 1579 1579
1484 1486 1488 1491 1494 1499 1502 1505 1507 1508 1509 1512 1514 1517 1520 1523 1525 1527 1529 1530 1532 1535 1537 1539 1540 1542 1544 1545 1546 1547 1547 1548 1549 1551 1552 1554 1555 1557 1559 1560 1561 1563 1563 1563 1563 1564 1565 1566 1567 1567 1568 1569 1569 1570 1570 1570 1571 1571 1571 1571 1572 1572 1573 1573 1573 1573 1573 1574 1574 1575 1575 1575 1575 1576 1576 1577 1577 1578 1579 1579 1579 1579 1579 1579 1579
1480 1483 1485 1487 1489 1492 1495 1498 1500 1503 1505 1508 1511 1513 1516 1518 1521 1524 1526 1528 1530 1532 1534 1536 1537 1539 1540 1542 1543 1544 1544 1545 1547 1549 1550 1552 1554 1555 1557 1558 1559 1560 1561 1561 1561 1562 1563 1564 1565 1566 1567 1567 1568 1569 1569 1569 1569 1569 1570 1570 1571 1571 1572 1572 1573 1573 1573 1573 1574 1574 1575 1575 1576 1576 1576 1577 1577 1577 1577 1578 1578 1578 1578 1578 1578
1474 1477 1480 1482 1484 1486 1488 1490 1494 1497 1501 1504 1506 1509 1512 1514 1517 1520 1522 1525 1527 1529 1531 1533 1535 1536 1538 1539 1540 1541 1542 1544 1546 1547 1548 1550 1552 1553 1555 1556 1557 1558 1558 1559 1560 1561 1562 1563 1564 1564 1565 1566 1567 1567 1567 1568 1568 1568 1568 1569 1569 1570 1570 1571 1572 1572 1573 1573 1573 1574 1574 1575 1575 1576 1576 1577 1576 1576 1577 1577 1577 1577 1578 1578 1578
1469 1471 1473 1476 1478 1480 1483 1485 1489 1493 1496 1499 1502 1505 1508 1511 1514 1516 1518 1521 1523 1526 1528 1530 1532 1534 1535 1535 1536 1537 1539 1541 1543 1544 1546 1548 1550 1551 1552 1553 1554 1555 1556 1557 1558 1559 1560 1561 1562 1563 1564 1565 1565 1566 1566 1566 1566 1567 1567 1568 1568 1568 1569 1570 1571 1571 1572 1572 1573 1573 1573 1574 1575 1575 1576 1576 1576 1576 1576 1576 1576 1577 1577 1578 1578
1464 1467 1469 1471 1473 1476 1480 1483 1486 1489 1491 1495 1498 1500 1503 1506 1509 1511 1514 1517 1519 1522 1524 1527 1529 1531 1532 1532 1533 1534 1536 1538 1539 1541 1543 1545 1547 1548 1549 1551 1551 1552 1553 1555 1556 1557 1558 1559 1560 1562 1563 1563 1564 1564 1564 1564 1565 1566 1566 1567 1567 1567 1568 1569 1569 1570 1571 1572 1572 1572 1572 1573 1573 1574 1575 1575 1576 1576 1576 1576 1576 1576 1577 1577 1578
1459 1463 1465 1469 1472 1475 1479 1481 1482 1486 1488 1490 1493 1496 1499 1501 1504 1507 1510 1513 1515 1518 1521 1523 1525 1527 1528 1529 1530 1531 1532 1534 1535 1537 1540 1542 1544 1545 1547 1548 1549 1550 1551 1553 1554 1555 1556 1557 1558 1560 1561 1561 1562 1562 1562 1563 1564 1564 1565 1565 1566 1566 1567 1567 1568 1569 1570 1571 1571 1571 1572 1572 1573 1573 1574 1575 1575 1576 1576 1576 1576 1576 1576 1577 1577
1455 1458 1461 1464 1468 1471 1474 1476 1479 1481 1483 1485 1488 1491 1494 1497 1499 1502 1505 1508 1511 1514 1517 1519 1521 1523 1525 1526 1526 1528 1529 1530 1532 1534 1537 1539 1541 1543 1544 1545 1546 1547 1548 1550 1551 1552 1553 1554 1555 1557 1558 1559 1560 1560 1561 1562 1562 1563 1563 1564 1564 1565 1565 1565 1566 1567 1569 1570 1571 1571 1571 1572 1572 1573 1573 1574 1575 1575 1575 1576 1576 1576 1576 1576 1576
1450 1453 1456 1459 1462 1465 1467 1470 1473 1475 1477 1480 1483 1486 1489 1492 1495 1497 1500 1503 1506 1509 1512 1515 1516 1518 1520 1522 1523 1525 1526 1527 1529 1531 1534 1536 1538 1540 1541 1542 1543 1544 1545 1547 1548 1550 1551 1552 1553 1555 1556 1557 1558 1559 1559 1560 1561 1561 1562 1563 1563 1564 1564 1564 1565 1566 1567 1569 1570 1570 1570 1571 1572 1572 1572 1573 1573 1574 1574 1574 1575 1575 1575 1575 1575
1445 1448 1451 1453 1455 1458 1461 1463 1466 1469 1472 1476 1479 1482 1484 1487 1489 1492 1496 1499 1501 1504 1507 1510 1512 1514 1516 1518 1520 1521 1522 1524 1526 1528 1531 1533 1535 1537 1538 1539 1540 1542 1543 1545 1546 1548 1549 1550 1551 1552 1554 1555 1556 1557 1557 1558 1559 1560 1561 1562 1562 1563 1563 1563 1564 1565 1566 1567 1568 1569 1570 1570 1571 1571 1572 1572 1572 1572 1573 1573 1573 1574 1574 1574 1574
1440 1443 1445 1447 1449 1452 1455 1458 1460 1463 1467 1471 1473 1476 1478 1481 1485 1488 1491 1494 1497 1500 1502 1505 1508 1510 1512 1514 1515 1517 1519 1521 1523 1525 1527 1530 1532 1533 1535 1536 1538 1540 1541 1543 1544 1545 1547 1548 1549 1550 1552 1553 1554 1555 1555 1556 1558 1559 1560 1561 1562 1562 1562 1562 1563 1564 1565 1566 1567 1568 1568 1569 1570 1570 1571 1571 1571 1571 1571 1571 1572 1572 1572 1573 1573
1434 1437 1439 1442 1444 1447 1450 1452 1455 1458 1462 1465 1467 1470 1472 1476 1479 1483 1487 1491 1493 1496 1499 1502 1505 1506 1507 1509 1511 1513 1515 1517 1519 1521 1524 1527 1529 1531 1532 1534 1535 1537 1539 1540 1541 1543 1544 1545 1546 1548 1549 1550 1551 1552 1553 1555 1556 1557 1559 1560 1561 1561 1561 1562 1562 1563 1564 1565 1566 1566 1567 1567 1568 1569 1569 1569 1569 1570 1570 1570 1570 1571 1571 1571 1571
1429 1431 1433 1436 1439 1442 1444 1447 1450 1452 1455 1458 1461 1465 1468 1472 1475 1479 1482 1486 1489 1492 1495 1498 1500 1503 1503 1504 1507 1509 1511 1514 1516 1519 1521 1524 1526 1527 1529 1531 1532 1534 1536 1537 1539 1540 1541 1543 1544 1545 1546 1548 1549 1550 1552 1553 1555 1556 1557 1559 1560 1560 1560 1561 1561 1562 1563 1563 1564 1564 1565 1566 1567 1567 1568 1568 1568 1568 1568 1568 1569 1569 1569 1570 1570
1426 1427 1429 1431 1434 1437 1440 1443 1445 1447 1450 1453 1457 1462 1465 1469 1472 1475 1477 1480 1484 1488 1491 1494 1496 1498 1499 1500 1503 1505 1508 1511 1513 1516 1518 1520 1522 1524 1525 1527 1529 1531 1533 1534 1536 1537 1538 1540 1541 1542 1544 1546 1547 1549 1550 1552 1553 1554 1555 1557 1558 1558 1559 1559 1560 1560 1561 1562 1562 1563 1563 1564 1565 1565 1566 1566 1566 1567 1567 1567 1567 1567 1568 1568 1568
1422 1423 1425 1427 1429 1432 1434 1437 1440 1443 1447 1451 1456 1460 1462 1465 1468 1471 1474 1477 1481 1484 1486 1489 1491 1493 1495 1497 1500 1502 1505 1508 1510 1513 1514 1516 1518 1520 1522 1524 1526 1528 1529 1531 1532 1534 1535 1536 1537 1539 1541 1543 1545 1547 1548 1550 1551 1552 1553 1554 1555 1556 1557 1557 1558 1558 1559 1560 1560 1561 1562 1562 1563 1563 1564 1565 1565 1565 1565 1565 1566 1566 1566 1566 1566
1416 1418 1420 1422 1424 1427 1430 1433 1436 1440 1445 1449 1452 1456 1458 1462 1464 1467 1471 1474 1476 1479 1482 1484 1486 1489 1491 1493 1496 1498 1501 1504 1507 1509 1511 1513 1515 1517 1519 1521 1522 1524 1526 1527 1529 1530 1531 1533 1534 1536 1539 1541 1543 1544 1546 1547 1548 1549 1550 1552 1553 1553 1554 1555 1556 1556 1557 1558 1559 1559 1560 1561 1561 1562 1562 1563 1563 1563 1564 1564 1564 1564 1564 1564 1564
1411 1412 1415 1417 1420 1423 1427 1430 1435 1438 1441 1444 1448 1451 1455 1458 1460 1463 1466 1468 1471 1474 1477 1479 1482 1484 1487 1489 1492 1495 1498 1500 1503 1505 1507 1509 1511 1513 1515 1518 1519 1520 1522 1523 1525 1526 1528 1530 1532 1534 1536 1538 1540 1542 1543 1544 1545 1547 1548 1549 1550 1551 1552 1553 1554 1554 1555 1556 1557 1557 1558 1559 1559 1560 1560 1560 1561 1561 1561 1562 1562 1562 1562 1562 1562
1405 1406 1409 1411 1414 1418 1422 1426 1430 1434 1436 1440 1443 1447 1450 1453 1456 1459 1461 1463 1465 1469 1472 1475 1478 1480 1483 1486 1489 1491 1494 1496 1499 1501 1503 1505 1508 1510 1512 1514 1515 1517 1519 1520 1521 1523 1525 1527 1529 1531 1533 1535 1537 1539 1540 1542 1543 1544 1545 1546 1548 1549 1550 1551 1551 1552 1553 1554 1555 1555 1556 1557 1558 1558 1558 1558 1558 1559 1559 1559 1560 1560 1560 1560 1560
1400 1402 1404 1407 1410 1414 1419 1423 1426 1429 1432 1436 1439 1442 1446 1449 1452 1454 1456 1458 1462 1465 1468 1471 1473 1476 1479 1482 1485 1488 1490 1492 1495 1497 1499 1501 1504 1506 1508 1510 1512 1514 1515 1516 1518 1520 1522 1524 1526 1528 1529 1531 1533 1536 1538 1539 1541 1543 1544 1545 1546 1547 1548 1549 1550 1551 1551 1552 1552 1553 1554 1555 1556 1556 1556 1556 1556 1556 1556 1557 1557 1558 1558 1558 1558
1396 1399 1402 1405 1408 1412 1415 1418 1421 1424 1428 1431 1434 1439 1442 1445 1448 1449 1452 1456 1459 1462 1464 1466 1469 1472 1475 1478 1480 1483 1486 1488 1490 1492 1495 1497 1500 1502 1504 1506 1508 1510 1512 1513 1515 1517 1519 1521 1522 1524 1526 1528 1530 1533 1535 1537 1539 1541 1543 1544 1545 1546 1547 1548 1548 1549 1549 1550 1550 1551 1551 1553 1553 1553 1553 1553 1553 1553 1553 1554 1555 1556 1556 1556 1557
1392 1395 1399 1402 1406 1409 1411 1414 1417 1419 1423 1427 1430 1434 1438 1441 1444 1447 1450 1454 1456 1459 1461 1463 1466 1468 1470 1473 1476 1478 1480 1483 1486 1488 1490 1493 1496 1498 1500 1502 1504 1506 1508 1510 1512 1514 1515 1517 1519 1521 1524 1526 1528 1531 1533 1535 1537 1539 1541 1542 1543 1544 1544 1545 1546 1547 1547 1547 1547 1548 1549 1550 1550 1550 1551 1551 1551 1551 1551 1551 1552 1553 1554 1554 1554
1388 1390 1394 1398 1402 1405 1407 1410 1413 1416 1419 1422 1426 1430 1433 1437 1440 1444 1448 1451 1454 1456 1458 1460 1462 1464 1466 1468 1470 1473 1475 1478 1481 1484 1487 1489 1492 1494 1496 1498 1501 1503 1505 1507 1509 1511 1512 1514 1517 1519 1522 1524 1526 1529 1531 1533 1535 1537 1538 1539 1540 1541 1542 1542 1543 1544 1545 1545 1545 1545 1546 1547 1547 1547 1548 1549 1550 1550 1550 1549 1550 1551 1552 1552 1552
1383 1387 1390 1394 1397 1401 1404 1407 1410 1413 1416 1419 1422 1426 1429 1432 1436 1441 1445 1448 1451 1453 1455 1456 1458 1459 1461 1462 1465 1468 1470 1473 1477 1480 1483 1486 1488 1491 1493 1495 1498 1500 1502 1504 1506 1509 1511 1513 1516 1518 1520 1522 1524 1526 1528 1530 1533 1535 1536 1536 1537 1538 1538 1539 1540 1541 1542 1542 1542 1543 1543 1544 1544 1545 1546 1547 1547 1548 1548 1548 1548 1549 1549 1550 1550
1382 1385 1387 1389 1393 1396 1399 1403 1406 1410 1413 1416 1420 1423 1426 1430 1433 1437 1440 1443 1446 1449 1451 1452 1454 1455 1455 1457 1461 1464 1466 1470 1473 1476 1479 1482 1484 1488 1491 1493 1496 1498 1500 1503 1505 1508 1510 1512 1515 1517 1518 1520 1521 1522 1524 1527 1529 1531 1532 1533 1534 1535 1535 1535 1536 1537 1538 1539 1539 1540 1540 1541 1542 1542 1543 1543 1544 1545 1546 1546 1547 1547 1548 1548 1549
1380 1382 1384 1386 1389 1391 1394 1398 1402 1406 1410 1413 1417 1420 1423 1426 1429 1433 1436 1438 1442 1445 1446 1448 1449 1449 1451 1454 1457 1460 1463 1466 1469 1472 1475 1478 1482 1486 1489 1492 1494 1497 1499 1502 1504 1506 1509 1511 1513 1514 1516 1517 1518 1519 1521 1523 1525 1527 1528 1530 1531 1531 1531 1532 1532 1534 1535 1535 1536 1537 1538 1539 1539 1540 1540 1541 1541 1543 1544 1545 1545 1546 1546 1547 1547
1376 1379 1382 1383 1386 1389 1391 1395 1399 1403 1406 1410 1413 1416 1419 1422 1426 1429 1432 1434 1437 1440 1442 1443 1444 1445 1448 1451 1454 1456 1459 1462 1465 1468 1472 1476 1480 1484 1488 1491 1493 1496 1499 1501 1503 1504 1506 1508 1510 1511 1513 1514 1515 1516 1517 1520 1522 1523 1524 1526 1527 1527 1527 1528 1529 1530 1531 1532 1533 1534 1535 1536 1537 1537 1538 1538 1539 1541 1542 1543 1544 1544 1545 1545 1545
1373 1377 1381 1384 1385 1388 1390 1393 1397 1400 1403 1406 1409 1412 1416 1419 1422 1425 1427 1431 1434 1435 1438 1439 1440 1442 1446 1448 1450 1452 1455 1458 1461 1466 1470 1474 1479 1484 1487 1490 1493 1495 1497 1498 1500 1502 1503 1505 1507 1509 1510 1511 1512 1513 1514 1516 1518 1519 1520 1522 1523 1523 1523 1524 1525 1526 1527 1528 1530 1531 1532 1533 1534 1534 1535 1536 1537 1539 1540 1541 1541 1542 1542 1543 1543
1370 1373 1378 1382 1384 1386 1389 1392 1395 1397 1400 1403 1406 1409 1412 1414 1417 1419 1423 1427 1429 1431 1433 1435 1436 1440 1443 1445 1447 1449 1452 1455 1458 1463 1468 1473 1478 1482 1485 1489 1491 1493 1495 1496 1497 1499 1501 1502 1504 1505 1506 1508 1509 1511 1512 1513 1514 1515 1517 1518 1518 1519 1521 1522 1523 1523 1525 1526 1527 1528 1529 1530 1531 1532 1534 1535 1536 1537 1538 1539 1539 1540 1540 1540 1540
1367 1370 1374 1377 1380 1383 1387 1390 1392 1394 1397 1400 1402 1404 1406 1408 1411 1415 1419 1423 1425 1427 1429 1431 1434 1436 1439 1442 1445 1447 1450 1453 1456 1461 1466 1471 1475 1479 1483 1487 1489 1490 1491 1492 1494 1495 1497 1498 1500 1502 1504 1505 1507 1507 1508 1510 1511 1513 1513 1513 1515 1519 1523 1523 1522 1522 1522 1523 1524 1525 1526 1527 1529 1530 1532 1533 1534 1535 1536 1536 1537 1537 1537 1537 1537
1365 1368 1371 1375 1379 1382 1384 1386 1389 1392 1394 1397 1399 1401 1403 1406 1409 1413 1416 1419 1421 1423 1425 1428 1431 1433 1436 1440 1443 1445 1447 1451 1455 1459 1463 1467 1472 1476 1480 1483 1485 1486 1487 1488 1490 1491 1493 1494 1497 1499 1501 1502 1503 1504 1505 1506 1508 1510 1510 1510 1514 1519 1520 1520 1519 1518 1518 1519 1521 1523 1524 1525 1527 1528 1530 1531 1532 1533 1534 1534 1534 1534 1535 1535 1534
1366 1367 1368 1372 1376 1379 1382 1385 1387 1390 1392 1394 1396 1398 1400 1403 1407 1410 1413 1415 1418 1420 1422 1425 1427 1429 1432 1435 1439 1442 1445 1448 1453 1456 1459 1463 1467 1471 1475 1478 1480 1481 1483 1485 1486 1488 1490 1492 1494 1496 1497 1499 1500 1500 1501 1503 1505 1506 1507 1508 1511 1513 1514 1515 1515 1514 1515 1516 1518 1520 1522 1523 1525 1527 1528 1529 1530 1531 1531 1531 1532 1532 1532 1532 1532
1368 1369 1368 1370 1373 1376 1380 1385 1388 1389 1390 1391 1393 1395 1396 1399 1402 1405 1409 1412 1414 1417 1419 1421 1423 1425 1427 1431 1435 1439 1442 1445 1449 1451 1453 1457 1461 1465 1469 1472 1474 1476 1478 1480 1482 1484 1486 1488 1490 1492 1494 1495 1496 1496 1498 1500 1502 1504 1504 1505 1508 1509 1511 1512 1511 1511 1512 1514 1516 1518 1520 1521 1523 1524 1526 1527 1528 1528 1528 1529 1529 1529 1529 1529 1530
1369 1371 1370 1371 1372 1373 1377 1381 1383 1385 1387 1388 1390 1391 1393 1395 1398 1401 1404 1407 1410 1413 1416 1418 1419 1421 1423 1427 1431 1435 1438 1441 1443 1445 1447 1451 1455 1459 1463 1465 1468 1470 1472 1475 1478 1480 1482 1484 1486 1488 1490 1492 1492 1493 1496 1498 1500 1501 1502 1503 1505 1507 1508 1509 1509 1509 1510 1512 1514 1517 1518 1520 1521 1522 1524 1524 1525 1525 1526 1526 1527 1527 1527 1527 1527
1368 1369 1370 1371 1371 1372 1374 1376 1377 1380 1384 1385 1387 1389 1391 1393 1395 1397 1400 1402 1405 1408 1411 1414 1415 1417 1420 1423 1426 1430 1433 1436 1437 1439 1442 1445 1449 1453 1456 1460 1463 1465 1468 1471 1474 1477 1479 1481 1483 1485 1487 1489 1490 1492 1494 1496 1498 1499 1501 1502 1504 1505 1505 1506 1507 1507 1508 1510 1513 1515 1516 1518 1519 1520 1521 1522 1522 1523 1523 1524 1525 1525 1525 1525 1525
1368 1369 1369 1369 1370 1371 1372 1373 1375 1378 1380 1382 1384 1387 1390 1391 1392 1394 1395 1397 1400 1403 1406 1408 1410 1413 1416 1419 1421 1425 1428 1430 1432 1434 1437 1440 1444 1448 1451 1454 1457 1461 1464 1467 1470 1472 1475 1477 1480 1483 1485 1487 1488 1490 1492 1494 1496 1498 1499 1500 1502 1502 1503 1504 1505 1506 1507 1509 1511 1513 1515 1516 1517 1518 1519 1520 1520 1521 1521 1522 1522 1522 1522 1522 1522
1369 1369 1368 1368 1369 1369 1371 1372 1374 1376 1377 1379 1380 1382 1383 1385 1387 1388 1388 1390 1393 1396 1400 1403 1406 1409 1412 1414 1416 1419 1422 1425 1428 1430 1433 1437 1441 1444 1447 1449 1453 1456 1459 1463 1466 1469 1472 1475 1477 1480 1482 1484 1486 1488 1490 1492 1494 1496 1497 1498 1499 1500 1502 1503 1504 1504 1506 1507 1510 1512 1513 1515 1516 1517 1517 1517 1518 1518 1519 1519 1519 1519 1520 1520 1520
1368 1368 1367 1366 1367 1367 1368 1369 1371 1373 1375 1377 1378 1379 1379 1380 1382 1382 1383 1386 1389 1392 1395 1397 1400 1403 1406 1408 1411 1413 1416 1419 1423 1426 1429 1433 1437 1441 1443 1445 1448 1451 1455 1459 1462 1465 1468 1471 1474 1476 1479 1481 1483 1485 1487 1489 1491 1493 1495 1496 1497 1498 1500 1502 1502 1503 1504 1506 1508 1510 1512 1514 1514 1515 1515 1515 1515 1516 1516 1516 1516 1517 1517 1518 1518
1366 1367 1366 1366 1366 1365 1366 1367 1368 1370 1372 1374 1376 1378 1379 1380 1380 1381 1383 1386 1389 1392 1395 1397 1399 1401 1403 1404 1406 1409 1412 1414 1417 1421 1424 1428 1433 1437 1440 1443 1446 1449 1453 1457 1460 1463 1466 1468 1471 1473 1475 1478 1480 1482 1485 1487 1489 1491 1492 1494 1495 1497 1499 1500 1501 1502 1503 1505 1507 1509 1510 1512 1512 1513 1513 1513 1513 1513 1513 1513 1514 1515 1515 1516 1516
1366 1366 1366 1366 1366 1365 1365 1366 1367 1368 1369 1371 1374 1376 1377 1378 1378 1379 1381 1383 1386 1389 1393 1396 1399 1401 1402 1404 1405 1408 1410 1412 1415 1419 1422 1427 1432 1436 1439 1443 1445 1447 1453 1459 1462 1464 1465 1467 1468 1470 1472 1475 1478 1480 1482 1485 1487 1488 1490 1491 1493 1495 1497 1499 1500 1501 1502 1504 1505 1507 1508 1509 1510 1510 1510 1510 1510 1510 1511 1511 1512 1513 1514 1514 1514
1366 1366 1366 1366 1366 1365 1365 1366 1365 1367 1368 1370 1372 1374 1375 1376 1376 1377 1379 1381 1383 1386 1388 1390 1394 1396 1399 1401 1403 1405 1407 1410 1413 1417 1420 1425 1430 1434 1437 1440 1442 1447 1454 1459 1461 1462 1464 1465 1466 1468 1470 1473 1476 1478 1481 1483 1485 1486 1488 1489 1491 1493 1495 1497 1499 1500 1501 1502 1503 1504 1505 1506 1507 1507 1507 1507 1508 1508 1509 1510 1510 1511 1511 1511 1511
1367 1366 1365 1366 1365 1365 1364 1364 1363 1365 1366 1368 1370 1371 1372 1374 1376 1377 1380 1382 1383 1385 1385 1386 1389 1392 1394 1397 1399 1400 1403 1405 1408 1412 1416 1421 1424 1428 1432 1437 1443 1450 1454 1456 1458 1460 1462 1463 1465 1467 1469 1472 1474 1477 1478 1480 1482 1484 1485 1487 1489 1491 1493 1495 1497 1498 1499 1500 1501 1502 1503 1504 1504 1505 1505 1505 1506 1506 1507 1507 1508 1509 1509 1509 1509
1366 1365 1365 1365 1364 1364 1364 1362 1362 1363 1363 1364 1366 1367 1368 1370 1372 1374 1379 1383 1384 1384 1383 1383 1384 1387 1389 1391 1393 1395 1397 1400 1403 1405 1410 1415 1420 1426 1432 1439 1445 1448 1451 1454 1458 1460 1460 1461 1463 1466 1469 1472 1473 1475 1476 1478 1480 1481 1482 1484 1486 1488 1491 1493 1495 1496 1497 1498 1499 1500 1501 1502 1502 1502 1502 1503 1503 1504 1505 1505 1506 1506 1507 1507 1507
1366 1365 1365 1364 1364 1363 1363 1362 1361 1361 1362 1363 1364 1365 1366 1367 1367 1369 1372 1376 1379 1380 1380 1380 1381 1382 1383 1383 1384 1386 1389 1392 1397 1400 1403 1409 1416 1423 1430 1437 1441 1442 1444 1449 1454 1457 1458 1460 1462 1465 1468 1471 1472 1472 1473 1475 1477 1478 1479 1481 1483 1485 1488 1490 1492 1494 1495 1496 1497 1498 1499 1499 1500 1500 1500 1500 1501 1502 1502 1503 1504 1504 1504 1505 1505
1366 1364 1364 1364 1363 1363 1362 1361 1360 1360 1361 1362 1362 1363 1364 1365 1365 1366 1368 1370 1372 1373 1373 1376 1379 1380 1381 1380 1378 1378 1379 1382 1388 1395 1401 1406 1412 1417 1423 1431 1435 1436 1438 1444 1450 1454 1457 1459 1461 1463 1466 1468 1469 1469 1471 1473 1475 1476 1477 1478 1480 1483 1485 1488 1490 1492 1493 1494 1495 1496 1496 1497 1497 1497 1498 1498 1499 1500 1500 1501 1502 1502 1503 1503 1503
1365 1365 1364 1364 1363 1362 1361 1360 1360 1360 1361 1361 1361 1362 1362 1363 1363 1363 1363 1364 1365 1366 1367 1370 1372 1376 1381 1378 1365 1358 1364 1371 1378 1386 1394 1401 1406 1412 1419 1427 1431 1433 1437 1444 1450 1454 1456 1458 1460 1462 1464 1466 1467 1468 1470 1472 1474 1475 1476 1477 1479 1481 1484 1486 1488 1490 1491 1492 1493 1494 1494 1495 1495 1495 1495 1496 1497 1497 1498 1499 1499 1500 1500 1500 1500
1367 1366 1365 1365 1364 1363 1362 1361 1360 1361 1362 1362 1362 1361 1361 1360 1360 1360 1359 1359 1360 1361 1363 1365 1366 1369 1377 1376 1361 1353 1362 1373 1378 1383 1391 1396 1401 1409 1418 1425 1429 1433 1439 1446 1451 1454 1456 1456 1458 1460 1463 1466 1468 1469 1470 1471 1472 1474 1475 1476 1478 1480 1482 1484 1486 1488 1489 1490 1491 1492 1492 1493 1493 1493 1493 1494 1494 1495 1496 1497 1497 1497 1498 1498 1498